Wind_Speed
11 22 25 26 28 32 32 33 35 38 34 28 23 19 22 26 30 29 26 36 35 36 39 36 37 39 40 35 32 33 33 31 28 26 20 16 14 15 16 14 12 10 9
8 9 11 16 24 31 33 33 36 38 34 33 29 23 29 31 33 28 32 34 38 40 40 38 41 43 39 34 35 38 30 27 32 18 12 3 3 10 13 13 13 11 11
9 8 5 14 18 24 31 34 32 34 34 31 23 24 25 26 28 31 33 40 36 40 41 39 44 44 41 39 40 41 38 27 31 30 9 2 4 4 9 16 15 15 14
6 5 5 8 15 23 27 23 25 27 31 29 27 31 27 28 28 33 35 30 40 45 42 43 46 46 43 42 43 43 38 33 30 31 13 7 13 3 2 13 19 18 18
4 6 6 10 14 15 19 20 18 22 25 26 30 28 30 31 29 27 31 41 46 42 46 46 46 46 45 42 43 45 42 40 34 30 14 11 8 8 4 3 8 20 22
2 4 2 5 8 10 12 17 19 21 23 25 22 19 29 30 27 33 33 34 39 40 46 46 45 46 45 44 44 46 44 39 35 35 29 16 7 7 5 3 3 12 17
7 3 4 5 9 11 12 17 20 18 23 24 19 11 15 27 31 29 32 28 30 35 42 47 46 47 46 45 44 44 45 42 43 41 34 25 17 7 9 6 4 3 9
14 12 7 3 7 9 12 16 18 20 23 25 20 20 13 21 24 27 28 29 32 35 40 43 43 42 43 44 43 43 43 43 40 41 40 32 23 12 13 8 9 2 3
16 12 11 7 6 8 12 15 17 19 21 22 23 25 21 17 23 25 30 28 29 30 36 40 40 41 40 40 41 41 42 42 41 40 39 37 33 23 16 14 12 7 4
18 18 14 15 13 8 11 13 16 15 18 20 23 24 25 23 18 15 21 30 31 32 32 35 37 38 37 38 38 39 38 39 40 40 37 36 35 32 27 22 18 17 12
13 14 15 20 23 15 7 10 15 15 16 19 20 21 21 26 31 26 19 22 30 31 31 32 34 34 36 36 37 37 37 37 37 36 37 36 36 32 30 26 22 22 20
8 10 11 22 21 23 16 7 9 15 15 18 20 23 23 23 27 30 29 28 23 29 30 31 33 35 34 34 35 36 36 35 36 35 34 36 34 32 30 30 31 28 25
12 12 12 13 20 23 24 21 9 8 12 14 17 18 21 27 27 28 27 26 28 28 27 25 29 32 35 35 34 34 34 34 34 34 33 34 32 32 32 32 29 28 28
10 11 12 10 17 24 25 23 19 10 9 12 17 17 20 21 25 23 24 28 28 29 30 27 23 26 29 30 29 30 30 31 32 32 32 34 34 33 33 32 33 31 28
17 14 12 11 16 20 25 24 20 17 9 9 15 18 18 22 22 25 29 27 27 26 27 29 26 20 21 23 24 26 28 30 31 31 32 33 34 33 31 31 32 33 31
18 17 14 14 17 20 20 22 22 19 15 9 9 14 16 18 21 22 23 26 30 31 28 25 24 26 26 23 26 29 30 26 29 30 27 27 29 27 27 29 30 31 32
18 14 15 15 21 24 19 20 20 18 12 4 7 8 9 15 19 19 21 24 24 26 27 27 28 29 28 24 24 28 26 28 31 28 27 32 29 26 26 29 29 31 31
13 14 16 25 26 30 20 13 15 13 10 7 5 2 7 10 14 16 17 18 20 23 24 26 28 30 30 29 29 27 26 31 29 26 25 28 26 26 24 29 32 36 34
11 19 25 29 30 25 13 8 11 11 7 8 9 8 3 6 10 13 15 17 18 19 20 21 22 23 23 22 24 22 24 27 24 25 24 25 27 26 23 23 28 31 35
28 27 30 33 27 19 5 2 6 8 9 9 9 9 11 13 11 7 6 8 11 14 16 16 15 15 17 14 14 18 22 25 27 27 26 26 25 24 22 23 26 25 26
30 29 27 26 20 13 7 5 4 6 4 7 11 13 14 15 13 12 10 9 10 12 12 11 8 7 6 7 8 10 18 22 24 25 27 25 22 21 24 22 25 27 25
25 24 21 18 11 12 13 12 8 4 6 9 13 15 14 16 15 15 13 13 13 15 14 13 13 9 5 2 3 6 11 16 18 18 17 17 17 17 20 20 21 19 21
18 18 12 8 9 8 15 19 10 8 11 14 16 17 16 17 16 18 16 17 16 17 15 14 13 13 9 6 3 1 5 8 9 9 10 10 12 14 13 14 16 14 17
13 10 8 7 14 12 10 18 17 14 17 19 18 19 22 23 23 22 20 21 18 17 15 15 14 12 13 12 9 7 5 4 3 1 3 3 4 4 5 8 10 8 12
23 14 3 11 16 16 15 17 21 19 22 19 18 19 22 24 27 28 23 24 22 17 16 15 15 13 13 11 8 7 7 6 4 3 2 2 2 3 3 3 8 10 10
30 27 22 10 18 20 23 20 23 22 21 17 17 16 19 21 22 23 26 24 23 23 20 15 13 16 12 10 10 10 9 8 5 8 8 9 8 7 5 6 5 6 8
Wind_Direction
266 259 257 249 232 220 215 214 208 209 202 198 204 218 216 208 198 198 192 186 206 206 201 198 192 191 181 185 182 183 182 176 173 158 144 151 175 180 175 180 178 183 184
267 269 256 223 210 208 213 213 211 207 203 205 206 214 214 205 206 189 184 184 202 212 205 200 198 194 186 188 184 185 177 177 176 164 137 147 149 190 193 198 195 198 192
254 269 211 184 189 196 207 211 204 203 204 206 212 212 195 200 198 190 180 187 198 218 208 204 201 196 191 188 187 186 180 172 177 171 151 134 206 148 213 210 204 206 201
258 255 173 164 190 207 212 206 195 198 205 209 211 194 197 195 216 187 188 185 208 213 208 205 201 198 195 192 188 188 181 178 179 177 182 178 146 163 185 216 211 212 212
243 241 201 186 198 208 208 201 198 201 211 219 220 210 189 189 188 181 181 186 197 205 207 203 200 201 198 197 191 189 187 188 184 185 178 167 165 154 139 179 196 220 218
249 265 16 134 157 180 201 206 206 203 214 222 219 219 198 179 179 185 182 177 186 195 204 204 204 205 200 200 196 194 193 191 192 193 202 181 166 181 158 126 167 203 218
351 282 213 189 185 188 204 205 198 191 205 210 201 185 179 176 176 178 176 176 180 185 198 203 204 205 205 205 203 200 198 200 201 204 206 210 204 193 181 136 131 178 211
0 343 299 221 209 195 205 206 196 188 189 195 184 176 135 158 170 169 174 178 182 192 199 199 204 205 206 206 205 205 207 208 210 213 214 215 216 216 208 179 154 111 201
3 346 348 310 250 235 211 205 196 189 188 188 186 186 190 147 167 172 181 179 187 193 200 202 204 207 208 208 209 208 211 213 215 219 223 224 227 226 225 225 217 176 176
7 5 348 346 323 259 232 220 216 204 196 183 194 192 194 190 178 182 183 192 198 200 203 206 208 210 211 211 213 213 215 217 220 223 225 228 234 234 238 239 234 233 228
1 3 359 344 358 323 257 228 214 209 198 195 184 191 191 190 193 204 197 200 204 207 207 210 212 213 213 213 213 217 219 220 224 225 229 234 237 238 237 234 233 231 234
342 1 2 7 360 3 332 258 220 207 210 201 193 192 187 190 205 210 217 219 210 210 210 211 214 216 217 217 216 218 221 224 227 230 231 236 238 238 241 241 239 238 236
349 355 8 9 5 354 355 342 286 233 212 210 209 195 192 185 186 193 204 219 218 221 215 214 217 217 218 218 218 221 224 228 231 234 235 239 238 239 240 239 242 242 241
351 350 353 359 359 352 351 350 341 295 225 207 202 205 202 202 194 210 211 214 219 216 220 217 219 221 219 220 222 225 227 231 236 240 242 242 242 243 244 243 243 242 237
340 346 340 343 346 350 348 348 344 337 304 228 199 204 205 212 206 203 206 213 215 221 222 213 209 214 220 222 222 226 231 238 241 243 246 249 248 249 247 246 245 241 234
321 328 338 338 335 342 347 345 342 336 324 272 237 203 202 208 210 207 206 208 210 213 215 217 217 213 219 219 220 220 223 238 246 243 246 252 251 250 255 253 252 251 235
314 335 333 325 326 329 337 342 339 337 340 278 257 252 217 200 203 203 205 199 206 207 207 214 219 221 220 229 235 227 230 238 244 252 258 257 253 251 251 251 248 249 249
315 325 325 322 323 315 319 345 345 353 1 32 81 180 217 204 198 199 205 208 206 204 205 210 219 224 236 239 241 235 238 246 250 252 254 256 260 259 260 261 254 241 237
314 309 311 311 315 297 306 350 357 11 2 37 50 48 130 181 183 197 201 204 204 207 211 217 217 221 232 238 239 235 234 239 249 252 255 260 264 266 266 254 242 243 240
296 299 305 307 300 271 273 336 22 32 18 33 62 80 91 86 91 103 150 182 200 204 208 211 221 235 238 245 250 242 236 239 244 252 255 256 256 265 263 253 243 241 245
273 281 287 291 253 236 202 126 87 35 35 80 88 84 83 87 87 79 73 97 121 129 133 140 141 178 212 226 238 243 238 240 244 243 251 259 264 263 258 254 250 249 256
256 262 275 276 213 191 162 126 98 90 111 105 98 92 95 93 92 92 87 89 99 100 88 89 81 75 77 103 197 227 235 239 243 247 255 264 269 259 248 245 249 254 258
246 261 238 219 133 145 160 125 118 131 122 111 100 96 94 93 93 99 95 90 91 85 83 79 68 55 48 44 37 291 244 235 246 260 266 261 255 246 232 238 240 233 240
244 228 173 172 91 102 109 129 136 142 128 103 95 95 92 90 90 85 82 80 78 83 83 77 72 64 56 49 52 60 97 128 153 191 237 247 243 216 220 201 211 216 234
32 34 71 109 85 86 83 104 120 131 110 98 94 88 87 84 80 77 73 73 70 80 79 78 73 56 56 52 65 80 85 85 90 100 99 77 89 145 159 170 192 189 204
37 30 15 40 81 81 76 73 104 109 107 101 92 92 92 89 87 87 80 74 75 73 75 75 77 71 71 74 82 86 84 76 70 83 77 69 65 74 100 130 159 188 206
Height
706 704 702 705 709 713 718 722 728 733 740 747 753 758 762 767 769 768 764 772 787 795 799 802 807 816 815 823 826 836 842 847 850 854 860 864 865 867 867 869 869 870 871
704 699 699 700 703 707 712 718 722 727 734 738 743 749 752 758 765 767 761 767 781 794 795 797 807 813 813 821 823 830 838 843 847 852 857 864 867 867 867 868 869 869 870
700 697 696 698 702 705 709 713 718 723 729 735 738 743 746 754 758 761 762 767 773 788 790 794 805 809 810 815 819 826 831 838 844 849 850 862 862 863 865 866 867 869 869
697 694 696 700 702 704 708 713 717 721 726 729 735 732 735 740 747 746 753 753 770 783 786 792 801 805 808 811 815 822 829 834 840 845 846 848 849 858 865 864 865 867 867
693 693 694 698 702 706 708 713 717 720 725 725 727 724 723 732 739 745 749 755 771 774 783 790 795 801 804 808 813 818 825 830 836 839 842 845 848 850 854 860 860 863 864
694 694 696 699 704 707 711 713 715 717 720 719 720 720 720 726 734 741 748 755 761 768 778 785 792 798 801 805 809 816 822 826 832 835 839 840 844 847 849 854 857 859 860
701 698 697 699 702 705 710 712 713 715 717 717 718 719 719 722 728 737 740 744 757 764 772 778 786 791 796 802 807 813 819 823 826 830 835 839 841 843 846 848 853 857 858
713 707 703 700 701 703 707 709 710 713 713 715 717 720 723 724 728 734 740 745 752 761 769 775 782 788 794 799 804 810 815 820 825 828 832 836 840 842 844 845 848 856 856
721 716 708 706 705 706 707 708 709 710 712 714 718 720 725 726 731 738 743 747 754 762 767 773 779 785 791 797 802 807 811 816 820 824 829 833 838 840 843 843 845 847 856
724 719 716 709 708 705 706 708 709 710 712 715 717 717 722 726 729 737 740 747 756 760 765 771 777 783 788 794 800 803 808 812 816 820 824 828 833 837 839 842 843 844 846
732 727 722 716 709 708 706 707 708 711 712 715 717 718 721 726 732 739 745 750 753 758 763 769 774 780 785 789 794 799 804 808 811 816 819 822 828 831 835 837 839 840 843
735 731 727 722 715 712 711 708 708 709 711 713 715 718 721 725 731 735 741 746 751 757 761 765 770 776 781 786 789 793 797 803 807 810 814 817 822 825 829 832 833 836 839
736 730 727 726 722 717 714 712 710 709 711 713 716 717 719 725 730 733 738 743 749 754 757 761 766 772 777 781 785 788 792 797 801 805 809 813 816 819 821 824 827 830 833
740 735 731 730 728 722 718 715 714 711 711 711 714 717 719 723 726 729 734 740 745 750 756 760 765 769 773 777 779 783 787 792 797 800 803 806 808 811 816 818 820 822 825
744 739 735 732 731 728 721 717 715 714 711 711 711 715 718 721 725 729 731 737 743 745 750 756 760 762 768 771 774 780 784 786 789 792 795 799 802 805 807 809 813 816 819
750 743 739 734 731 731 727 722 717 715 713 711 712 714 716 718 722 725 730 735 738 744 745 751 754 759 763 766 771 775 778 779 786 788 788 793 796 798 801 804 807 809 811
752 748 746 742 734 731 728 725 720 716 714 713 712 713 715 717 721 724 729 732 734 739 743 747 751 755 760 763 763 769 773 778 783 780 780 787 788 789 792 799 802 803 805
752 750 749 743 738 732 728 724 723 720 717 715 714 715 716 717 720 722 726 729 732 736 740 744 748 751 754 757 761 765 769 772 774 776 778 782 782 784 785 789 792 796 797
757 754 750 745 739 735 729 725 724 721 721 718 716 717 717 719 720 722 726 729 732 735 737 743 746 749 751 753 759 759 763 768 768 771 774 776 779 781 782 783 786 789 789
758 755 749 743 738 735 730 727 725 724 724 720 720 720 719 720 722 724 727 729 731 733 738 742 744 745 748 748 750 756 759 762 765 767 768 771 772 776 778 779 781 784 781
753 748 746 745 738 735 731 728 726 726 726 724 722 722 722 723 725 727 729 730 732 734 736 738 740 743 744 744 749 753 756 757 761 762 764 767 768 769 773 774 776 778 779
741 740 738 737 733 731 730 727 729 729 728 726 724 725 726 727 728 729 733 733 733 734 737 739 740 742 743 746 749 751 754 757 760 760 762 763 765 766 767 769 772 773 775
733 732 731 732 727 728 729 727 729 731 732 730 730 729 730 730 732 733 736 737 738 738 740 742 744 744 747 748 749 751 755 755 756 759 760 761 763 763 760 763 768 769 773
729 727 728 730 725 729 731 726 727 731 733 734 736 735 734 735 735 736 738 739 742 745 747 748 749 750 750 750 751 754 754 755 757 758 761 761 761 760 760 760 765 765 771
730 729 731 728 726 731 734 732 727 733 734 737 740 740 739 739 741 742 746 747 749 750 751 753 753 753 754 755 756 757 756 757 759 760 762 763 760 760 762 761 763 766 769
741 740 741 736 730 734 730 733 730 736 739 742 743 746 745 744 746 749 751 754 755 755 756 756 756 755 756 757 759 759 759 759 760 762 763 763 764 763 762 764 765 768 771